When you browse on this site, cookies collect data to enhance your experience and personalize the content and advertising you see.
Visit our Privacy Policy to learn more. By continuing to use the site, you agree to this use of cookies and data.
  • în România
  • Lista ţărilor
  • Pe 7 zile
  • Temperatura apei
  • Meteo pe hartă
  • Widget-uri
  • user-avatar
    Intrare

    Meteo pe oră la Aberdeen

    Astăzi, 22 Octombrie, Marţi

    Timp Temperatura Precipitaţii Vânt Presiune Umiditate
    00:00 +2°C° 0 mm 5 m/s 755 mmHg 90%
    01:00 +2°C° 0 mm 5 m/s 754 mmHg 91%
    02:00 +3°C° 0 mm 5 m/s 754 mmHg 92%
    03:00 +3°C° 0 mm 5 m/s 753 mmHg 92%
    04:00 +3°C° 0 mm 5 m/s 753 mmHg 92%
    05:00 +5°C° 0 mm 5 m/s 753 mmHg 93%
    06:00 +5°C° 0 mm 5 m/s 753 mmHg 94%
    07:00 +6°C° 0 mm 5 m/s 753 mmHg 92%
    08:00 +7°C° 0 mm 5 m/s 753 mmHg 90%
    09:00 +8°C° 0 mm 5 m/s 753 mmHg 88%
    10:00 +8°C° 0 mm 6 m/s 753 mmHg 85%
    11:00 +9°C° 0 mm 7 m/s 753 mmHg 81%
    12:00 +10°C° 0 mm 7 m/s 753 mmHg 77%
    13:00 +10°C° 0 mm 7 m/s 753 mmHg 78%
    14:00 +10°C° 0 mm 7 m/s 752 mmHg 78%
    15:00 +10°C° 0 mm 6 m/s 752 mmHg 78%
    16:00 +9°C° 0 mm 6 m/s 752 mmHg 82%
    17:00 +8°C° 0 mm 6 m/s 752 mmHg 86%
    18:00 +7°C° 0 mm 6 m/s 752 mmHg 90%
    19:00 +7°C° 0 mm 6 m/s 752 mmHg 89%
    20:00 +7°C° 0 mm 5 m/s 752 mmHg 88%
    21:00 +7°C° 0 mm 5 m/s 752 mmHg 87%
    22:00 +7°C° 0 mm 5 m/s 751 mmHg 87%
    23:00 +7°C° 0 mm 5 m/s 751 mmHg 86%

    Mâine, 23 Octombrie, Miercuri

    Timp Temperatura Precipitaţii Vânt Presiune Umiditate
    00:00 +7°C° 0 mm 5 m/s 751 mmHg 86%
    01:00 +7°C° 0 mm 5 m/s 750 mmHg 86%
    02:00 +7°C° 0 mm 5 m/s 750 mmHg 87%
    03:00 +8°C° 0 mm 5 m/s 749 mmHg 87%
    04:00 +8°C° 0 mm 6 m/s 749 mmHg 86%
    05:00 +8°C° 0 mm 6 m/s 749 mmHg 85%
    06:00 +8°C° 0 mm 6 m/s 749 mmHg 84%
    07:00 +8°C° 0 mm 6 m/s 749 mmHg 84%
    08:00 +8°C° 0 mm 5 m/s 748 mmHg 84%
    09:00 +8°C° 0 mm 5 m/s 748 mmHg 84%
    10:00 +9°C° 0 mm 6 m/s 748 mmHg 81%
    11:00 +9°C° 0 mm 6 m/s 747 mmHg 78%
    12:00 +10°C° 0 mm 7 m/s 747 mmHg 75%
    13:00 +10°C° 0 mm 7 m/s 746 mmHg 75%
    14:00 +10°C° 0 mm 7 m/s 745 mmHg 76%
    15:00 +10°C° 0 mm 7 m/s 745 mmHg 77%
    16:00 +9°C° 0 mm 6 m/s 744 mmHg 78%
    17:00 +9°C° 0 mm 6 m/s 743 mmHg 79%
    18:00 +8°C° 0 mm 6 m/s 743 mmHg 81%
    19:00 +8°C° 0.1 mm 6 m/s 742 mmHg 82%
    20:00 +8°C° 0.1 mm 7 m/s 742 mmHg 83%
    21:00 +8°C° 0.1 mm 7 m/s 742 mmHg 85%
    22:00 +9°C° 0.3 mm 7 m/s 741 mmHg 87%
    23:00 +9°C° 0.3 mm 6 m/s 741 mmHg 89%

    Poimâine, 24 Octombrie, Joi

    Timp Temperatura Precipitaţii Vânt Presiune Umiditate
    00:00 +9°C° 0.3 mm 6 m/s 741 mmHg 91%
    01:00 +9°C° 0.1 mm 6 m/s 741 mmHg 91%
    02:00 +9°C° 0.1 mm 5 m/s 740 mmHg 92%
    03:00 +10°C° 0.1 mm 4 m/s 740 mmHg 93%
    04:00 +8°C° 0 mm 4 m/s 740 mmHg 94%
    05:00 +8°C° 0 mm 4 m/s 739 mmHg 94%
    06:00 +7°C° 0 mm 4 m/s 739 mmHg 95%
    07:00 +7°C° 0 mm 4 m/s 739 mmHg 93%
    08:00 +8°C° 0 mm 5 m/s 739 mmHg 91%
    09:00 +8°C° 0 mm 5 m/s 739 mmHg 89%
    10:00 +8°C° 0 mm 6 m/s 739 mmHg 86%
    11:00 +9°C° 0 mm 7 m/s 739 mmHg 83%
    12:00 +9°C° 0 mm 8 m/s 739 mmHg 80%
    13:00 +7°C° 0 mm 8 m/s 739 mmHg 77%
    14:00 +7°C° 0 mm 8 m/s 739 mmHg 73%
    15:00 +8°C° 0 mm 7 m/s 739 mmHg 70%
    16:00 +5°C° 0 mm 7 m/s 739 mmHg 73%
    17:00 +4°C° 0 mm 6 m/s 740 mmHg 77%
    18:00 +3°C° 0 mm 5 m/s 740 mmHg 80%
    19:00 +2°C° 0 mm 6 m/s 741 mmHg 80%
    20:00 +2°C° 0 mm 6 m/s 742 mmHg 80%
    21:00 0°C° 0 mm 7 m/s 742 mmHg 80%
    22:00 0°C° 0 mm 7 m/s 743 mmHg 80%
    23:00 0°C° 0 mm 7 m/s 743 mmHg 80%

    25 Octombrie, Vineri

    Timp Temperatura Precipitaţii Vânt Presiune Umiditate
    00:00 0°C° 0 mm 7 m/s 744 mmHg 80%
    01:00 -1°C° 0 mm 6 m/s 744 mmHg 81%
    02:00 0°C° 0 mm 5 m/s 745 mmHg 81%
    03:00 -1°C° 0 mm 5 m/s 745 mmHg 81%
    04:00 -1°C° 0 mm 5 m/s 745 mmHg 81%
    05:00 -1°C° 0 mm 5 m/s 745 mmHg 81%
    06:00 -1°C° 0 mm 5 m/s 745 mmHg 81%
    07:00 -1°C° 0 mm 6 m/s 746 mmHg 78%
    08:00 0°C° 0 mm 7 m/s 746 mmHg 76%
    09:00 +1°C° 0 mm 9 m/s 746 mmHg 73%
    10:00 +1°C° 0 mm 9 m/s 746 mmHg 71%
    11:00 +2°C° 0 mm 9 m/s 746 mmHg 69%
    12:00 +3°C° 0 mm 9 m/s 746 mmHg 67%
    13:00 +3°C° 0 mm 9 m/s 745 mmHg 68%
    14:00 +4°C° 0 mm 8 m/s 745 mmHg 69%
    15:00 +3°C° 0 mm 7 m/s 744 mmHg 71%
    16:00 +3°C° 0 mm 5 m/s 744 mmHg 74%
    17:00 +3°C° 0 mm 4 m/s 743 mmHg 78%
    18:00 +2°C° 0 mm 3 m/s 743 mmHg 82%
    19:00 +2°C° 0 mm 3 m/s 742 mmHg 85%
    20:00 +1°C° 0 mm 3 m/s 742 mmHg 88%
    21:00 0°C° 0 mm 3 m/s 741 mmHg 91%
    22:00 -1°C° 0 mm 4 m/s 741 mmHg 90%
    23:00 -1°C° 0 mm 4 m/s 741 mmHg 89%

    26 Octombrie, Sâmbătă

    Timp Temperatura Precipitaţii Vânt Presiune Umiditate
    00:00 -2°C° 0 mm 5 m/s 740 mmHg 89%
    01:00 -1°C° 0 mm 5 m/s 740 mmHg 86%
    02:00 -2°C° 0 mm 6 m/s 740 mmHg 83%
    03:00 -2°C° 0 mm 7 m/s 740 mmHg 81%
    04:00 -1°C° 0 mm 7 m/s 740 mmHg 79%
    05:00 -1°C° 0 mm 8 m/s 739 mmHg 77%
    06:00 -1°C° 0 mm 9 m/s 739 mmHg 75%
    07:00 0°C° 0.1 mm 10 m/s 739 mmHg 77%
    08:00 +1°C° 0.1 mm 10 m/s 739 mmHg 78%
    09:00 +1°C° 0.1 mm 11 m/s 739 mmHg 80%
    10:00 +2°C° 0.4 mm 11 m/s 740 mmHg 80%
    11:00 +3°C° 0.4 mm 12 m/s 740 mmHg 79%
    12:00 +4°C° 0.4 mm 12 m/s 740 mmHg 79%
    13:00 +4°C° 0.2 mm 12 m/s 740 mmHg 79%
    14:00 +4°C° 0.2 mm 12 m/s 740 mmHg 79%
    15:00 +4°C° 0.2 mm 12 m/s 741 mmHg 79%
    16:00 +3°C° 0.1 mm 11 m/s 742 mmHg 81%
    17:00 +3°C° 0.1 mm 10 m/s 743 mmHg 83%
    18:00 +3°C° 0.1 mm 9 m/s 744 mmHg 85%
    19:00 +2°C° 0 mm 8 m/s 745 mmHg 85%
    20:00 +3°C° 0 mm 7 m/s 747 mmHg 84%
    21:00 +3°C° 0 mm 6 m/s 748 mmHg 84%
    22:00 +2°C° 0 mm 6 m/s 749 mmHg 85%
    23:00 +2°C° 0 mm 6 m/s 750 mmHg 86%

    27 Octombrie, Duminică

    Timp Temperatura Precipitaţii Vânt Presiune Umiditate
    00:00 +2°C° 0 mm 6 m/s 751 mmHg 88%
    01:00 +2°C° 0 mm 5 m/s 752 mmHg 88%
    02:00 +2°C° 0 mm 5 m/s 752 mmHg 88%
    03:00 +1°C° 0 mm 4 m/s 753 mmHg 89%
    04:00 +1°C° 0 mm 4 m/s 754 mmHg 89%
    05:00 +1°C° 0 mm 4 m/s 754 mmHg 90%
    06:00 +1°C° 0 mm 3 m/s 755 mmHg 90%
    07:00 +2°C° 0 mm 3 m/s 755 mmHg 88%
    08:00 +2°C° 0 mm 3 m/s 756 mmHg 86%
    09:00 +3°C° 0 mm 3 m/s 756 mmHg 84%
    10:00 +4°C° 0 mm 3 m/s 757 mmHg 78%
    11:00 +5°C° 0 mm 3 m/s 757 mmHg 72%
    12:00 +6°C° 0 mm 4 m/s 757 mmHg 67%
    13:00 +7°C° 0 mm 3 m/s 757 mmHg 67%
    14:00 +7°C° 0 mm 3 m/s 758 mmHg 68%
    15:00 +7°C° 0 mm 2 m/s 758 mmHg 69%
    16:00 +6°C° 0 mm 2 m/s 758 mmHg 73%
    17:00 +4°C° 0 mm 2 m/s 758 mmHg 76%
    18:00 +3°C° 0 mm 2 m/s 758 mmHg 80%
    19:00 +2°C° 0 mm 2 m/s 758 mmHg 81%
    20:00 +2°C° 0 mm 2 m/s 759 mmHg 83%
    21:00 +2°C° 0 mm 2 m/s 759 mmHg 84%
    22:00 +1°C° 0 mm 2 m/s 759 mmHg 85%
    23:00 +1°C° 0 mm 2 m/s 759 mmHg 85%

    28 Octombrie, Luni

    Timp Temperatura Precipitaţii Vânt Presiune Umiditate
    00:00 +1°C° 0 mm 2 m/s 759 mmHg 85%
    01:00 +1°C° 0 mm 2 m/s 759 mmHg 84%
    02:00 +1°C° 0 mm 2 m/s 759 mmHg 84%
    03:00 -1°C° 0 mm 2 m/s 759 mmHg 83%
    04:00 -1°C° 0 mm 2 m/s 759 mmHg 83%
    05:00 -1°C° 0 mm 2 m/s 759 mmHg 82%
    06:00 -1°C° 0 mm 2 m/s 759 mmHg 81%
    07:00 +1°C° 0 mm 2 m/s 759 mmHg 79%
    08:00 +2°C° 0 mm 2 m/s 759 mmHg 77%
    09:00 +3°C° 0 mm 2 m/s 759 mmHg 74%
    10:00 +3°C° 0 mm 3 m/s 759 mmHg 70%
    11:00 +4°C° 0 mm 3 m/s 759 mmHg 67%
    12:00 +5°C° 0 mm 4 m/s 759 mmHg 63%
    13:00 +5°C° 0 mm 4 m/s 758 mmHg 65%
    14:00 +5°C° 0 mm 4 m/s 758 mmHg 68%
    15:00 +5°C° 0 mm 4 m/s 757 mmHg 71%
    16:00 +4°C° 0 mm 4 m/s 757 mmHg 73%
    17:00 +3°C° 0 mm 4 m/s 757 mmHg 76%
    18:00 +3°C° 0 mm 4 m/s 757 mmHg 78%
    19:00 +3°C° 0 mm 4 m/s 757 mmHg 79%
    20:00 +2°C° 0 mm 5 m/s 757 mmHg 79%
    21:00 +3°C° 0 mm 5 m/s 757 mmHg 79%
    22:00 +3°C° 0 mm 6 m/s 756 mmHg 80%
    23:00 +3°C° 0 mm 6 m/s 756 mmHg 80%
    Arată mai mult